Location: *
(45.2972°N, 16.2814°E)
Time: 19:38:57
(UTC+00:00)

Daily predictions for brighter satellites

Satellite Brightness Start Highest point End
(mag) Time Altitude Azimuth Time Altitude Azimuth Time Altitude Azimuth
Radarsat Rocket 4.3 16:11:57 10° SSE 16:18:04 74° WSW 16:23:55 10° NNW
Cosmos 1697 Rocket 4.5 16:18:46 10° E 16:19:21 10° E 16:19:56 10° E
NOAA 12 4.1 16:17:03 10° SSE 16:22:20 85° ENE 16:27:41 10° NNW
Okean O Rocket 1.7 16:18:26 10° SSE 16:22:48 87° WSW 16:27:12 10° NNW
Cosmos 1300 3.4 16:19:27 10° SSE 16:22:54 33° E 16:26:22 10° NNE
Cosmos 1703 3.6 16:19:07 10° NNW 16:23:04 74° W 16:27:00 10° S
CZ-2D R/B 4.5 16:20:36 10° ESE 16:23:32 21° ENE 16:26:29 10° NNE
Cosmos 1825 Rocket 3.6 16:20:20 10° N 16:24:45 59° E 16:29:06 10° SSE
FALCON 9 DEB 3.9 16:21:54 10° SSW 16:24:53 34° SE 16:27:52 10° ENE
NOAA 11 4.2 16:23:01 10° SSE 16:28:22 61° ENE 16:33:44 10° N
YAOGAN 1 3.9 16:26:12 10° ESE 16:29:17 19° ENE 16:32:23 10° NNE
IRS-1C Rocket 4.4 16:27:55 10° SE 16:32:55 46° ENE 16:37:57 10° N
Meteor 1-11 4.3 16:29:21 10° N 16:35:06 83° E 16:40:53 10° SSE
FALCON 9 DEB 3.3 16:34:27 10° SW 16:37:33 47° SE 16:40:13 13° ENE
Meteor 2-14 Rocket 4.4 16:31:56 10° N 16:38:08 83° E 16:44:14 10° S
Cosmos 2369 Rocket 4.4 16:34:36 10° W 16:38:53 21° NW 16:43:12 10° N
FengYun 1-2 T 4.3 16:34:08 10° SSE 16:39:47 84° ENE 16:45:28 10° NNW
Cosmos 1726 Rocket 3.6 16:35:57 10° S 16:40:11 56° E 16:44:29 10° NNE
Cosmos 2297 Rocket 2.6 16:35:41 10° NNW 16:41:02 41° NE 16:46:22 10° SE
Cosmos 1758 Rocket 4.0 16:38:37 10° NNW 16:43:01 68° W 16:47:19 10° S
Cosmos 1331 Rocket 3.9 16:38:06 10° SSW 16:43:15 82° ESE 16:48:26 10° NNE
ERS-2 2.5 16:43:13 10° N 16:46:52 67° WNW 16:50:28 10° SSW
Cosmos 1340 3.2 16:45:35 10° N 16:49:06 35° ENE 16:52:35 10° SE
Cosmos 1689 Rocket 2.4 16:46:44 10° NNE 16:49:29 40° E 16:52:13 10° S
BREEZE-M TANK 3.3 16:40:23 10° W 16:50:31 90° NE 16:53:24 16° E
SAR-Lupe-4 3.5 16:47:15 10° NNE 16:50:50 71° ESE 16:54:24 10° S
Cosmos 2228 3.1 16:46:57 10° S 16:51:12 82° W 16:55:30 10° N
SeaSat 1 3.8 16:49:26 15° E 16:51:56 21° NE 16:55:33 10° N
USA 215 4.2 16:48:42 12° ENE 16:53:56 33° N 16:59:38 10° NW
Okean-O 3.0 16:50:17 10° SE 16:54:27 42° ENE 16:58:38 10° N
BREEZE-M R/B 3.8 16:51:24 10° WNW 16:54:57 51° N 17:00:03 16° ENE
Feng Yun 1-1 Rocket 4.4 16:49:23 10° SSE 16:55:17 87° ENE 17:01:16 10° NNW
Cosmos 1606 Rocket 3.7 16:51:01 10° SSW 16:55:22 79° W 16:59:48 10° N
ATLAS 2AS CENTAUR R/B 4.2 16:50:46 10° NNW 16:56:41 23° NNE 17:01:08 14° ENE
USA 307 4.0 16:55:49 10° NW 16:59:40 31° NNE 17:01:58 19° ENE
Cosmos 1745 Rocket 4.5 16:54:28 10° N 17:00:18 38° ENE 17:06:08 10° SE
SKYMED 2 3.5 16:57:44 10° NNE 17:02:05 70° ESE 17:06:24 10° S
CZ-4 R/B 4.4 16:58:13 10° SSE 17:02:19 63° ENE 17:06:27 10° N
Cosmos 968 Rocket 3.9 16:59:21 10° N 17:04:19 41° ENE 17:09:13 10° SE
USA 308 3.9 17:00:38 10° NW 17:04:31 32° NNE 17:06:35 21° ENE
Cosmos 1939 Rocket 2.8 17:01:53 10° SSE 17:05:52 89° E 17:09:49 10° NNW
CZ-4C R/B 4.3 17:03:36 10° NNW 17:07:56 18° NNE 17:11:52 12° NE
Helios 1A Rocket 2.9 17:03:52 10° SSE 17:07:57 65° ENE 17:12:02 10° N
Aureole 3 2.5 17:04:54 10° S 17:08:07 68° E 17:11:06 10° NNE
SAR-Lupe-1 4.2 17:05:09 10° N 17:08:44 75° WNW 17:12:18 10° SSW
Cosmos 2219 3.2 17:04:02 10° NNW 17:09:48 70° ENE 17:15:32 10° SE
Cosmos 1455 3.8 17:08:58 10° SE 17:10:20 18° SE 17:10:20 18° SE
Cosmos 1244 Rocket 4.5 17:06:33 10° N 17:12:47 87° E 17:19:03 10° S
Cosmos 1302 Rocket 3.9 17:08:07 10° SSW 17:13:22 78° ESE 17:18:40 10° NNE
CZ-2C R/B 3.3 17:11:31 10° SSE 17:17:12 59° ENE 17:22:46 10° N
Aureole 3 Rocket 3.0 17:13:45 10° S 17:17:32 85° E 17:22:46 10° N
Cosmos 44 3.5 17:13:22 10° SW 17:17:50 66° NW 17:22:34 10° NNE
Cosmos 2082 4.2 17:13:47 10° NNW 17:19:08 39° NE 17:21:49 25° ESE
MOS 1 Rocket 3.8 17:15:37 10° NNE 17:19:58 37° E 17:24:31 10° SSE
Cosmos 1486 Rocket 4.1 17:14:43 10° NNW 17:20:00 59° ENE 17:25:14 10° SE
PSLV R/B 3.9 17:18:19 10° NNE 17:22:32 85° WNW 17:26:40 10° SSW
Cosmos 2058 Rocket 3.3 17:21:58 10° SSW 17:26:26 76° W 17:30:58 10° N
Meteor 2-10 Rocket 3.6 17:21:31 10° S 17:26:42 52° E 17:31:42 10° NNE
Cosmos 2058 3.0 17:23:40 10° N 17:27:40 49° ENE 17:29:46 25° SE
CZ-4 R/B 1.1 17:23:50 10° SSE 17:27:45 85° ENE 17:31:38 10° NNW
ATLAS 5 CENTAUR R/B 4.3 17:27:06 10° NNW 17:28:31 11° NNW 17:29:58 10° N
Cosmos 1503 Rocket 4.4 17:24:36 10° N 17:29:33 41° ENE 17:31:09 32° ESE
Cosmos 1400 Rocket 3.2 17:25:54 10° SSW 17:30:00 68° W 17:34:06 10° N
Cosmos 1709 Rocket 4.5 17:24:20 10° N 17:30:13 37° ENE 17:33:08 25° ESE
Cosmos 2369 4.2 17:26:08 10° S 17:31:17 36° ESE 17:32:47 31° ENE
Lacrosse 5 3.6 17:29:31 10° NW 17:33:24 21° N 17:35:34 17° NNE
ARGOS 3.4 17:31:49 26° SE 17:34:29 44° ENE 17:39:38 10° N
Atlas Centaur 2 4.4 17:31:04 10° SW 17:37:35 25° SSE 17:41:16 18° SE
Cosmos 1354 Rocket 4.3 17:35:25 10° N 17:40:28 45° ENE 17:41:21 41° E
Cosmos 1656 3.6 17:36:25 10° SSW 17:41:58 88° WNW 17:47:39 10° NNE
FALCON 9 DEB 3.6 17:41:42 10° WSW 17:44:51 48° NNW 17:44:56 48° NNW
Cosmos 2227 Rocket 2.2 17:39:30 10° NNW 17:45:11 83° WSW 17:50:25 12° SSE
Cosmos 2315 Rocket 4.3 17:40:58 10° SSE 17:46:39 40° E 17:52:20 10° NNE
Cosmos 1892 3.0 17:43:31 10° NNW 17:47:23 67° W 17:51:13 10° S
Meteor 2-1 Rocket 4.0 17:42:00 10° S 17:47:28 70° E 17:52:58 10° NNE
S3M 3.8 17:43:12 10° S 17:49:17 81° E 17:55:28 10° N
COSMO-SKYMED 1 4.1 17:46:02 10° N 17:50:03 37° WNW 17:54:02 10° SW
FALCON 9 DEB 3.9 17:47:10 10° W 17:50:05 42° NNW 17:50:05 42° NNW
CSL-04 Rocket 3.6 17:45:08 10° SSE 17:50:41 80° ENE 17:56:14 10° NNW
GEOS 3 Rocket 3.6 17:48:40 36° SE 17:50:56 80° NE 17:56:21 10° NW
USA 305 3.2 17:46:58 10° NW 17:51:10 49° NNE 17:51:11 49° NNE
Cosmos 2263 Rocket 3.6 17:48:07 10° N 17:51:44 22° NE 17:51:44 22° NE
Cosmos 1992 Rocket 3.8 17:48:32 10° S 17:53:42 72° ESE 17:56:21 29° NNE
SL-4 R/B 3.0 17:52:28 10° NW 17:55:22 33° N 17:55:22 33° N
H-2A R/B 2.1 17:50:57 10° SSE 17:56:22 88° ENE 18:01:51 10° NNW
USA 306 3.2 17:53:19 10° NW 17:57:16 51° NNE 17:57:16 51° NNE
Cosmos 1346 Rocket 3.0 17:54:30 10° NNW 17:58:28 71° W 17:59:46 41° S
Cosmos 1076 Rocket 3.3 17:54:50 10° N 17:58:51 75° NNE 17:58:51 75° NNE
Cosmos 1315 Rocket 3.4 17:55:54 10° S 17:58:40 45° S 17:58:40 45° S
FALCON 9 DEB 4.4 17:57:53 10° W 18:00:24 35° NW 18:00:24 35° NW
Cosmos 1408 2.9 17:58:03 10° NNW 18:01:19 61° WNW 18:01:19 61° WNW
Cosmos 1697 Rocket 2.5 17:56:40 10° SSW 18:02:15 74° ESE 18:04:15 41° NE
Ariane Rocket 4.1 18:04:43 29° NNE 18:04:43 29° NNE 18:07:36 10° N
YAOGAN 1 3.6 18:00:55 10° S 18:05:03 45° W 18:09:14 10° NNW
Geosat 4.1 18:03:24 22° NNE 18:06:39 75° WNW 18:11:39 10° SW
Cosmos 1825 4.0 18:07:33 10° N 18:09:07 23° N 18:09:07 23° N
Cosmos 1980 Rocket 3.6 18:18:56 10° S 18:21:05 24° S 18:21:05 24° S
Cosmos 2297 Rocket 3.7 18:19:56 10° NW 18:24:59 34° WSW 18:29:59 10° SSW
NOSS 3-4 (A) 4.0 18:20:25 10° NNW 18:27:10 52° NE 18:27:19 52° NE
NOSS 3-4 (C) 4.0 18:20:32 10° NNW 18:27:16 52° NE 18:27:24 52° NE
SeaSat 1 2.6 18:29:14 71° W 18:29:14 71° W 18:33:56 10° NNW
NOSS 3-3 (A) 4.0 18:30:01 10° SW 18:35:50 74° NW 18:36:53 61° N
NOSS 3-3 (C) 4.0 18:30:07 10° SW 18:35:57 75° NW 18:37:00 61° N
USA 215 3.4 18:36:03 57° NNE 18:36:12 57° NNE 18:42:34 10° NW
Cosmos 2360 4.3 18:31:26 10° SSW 18:36:45 74° WSW 18:36:45 74° WSW
ATLAS 2AS CENTAUR R/B 3.1 18:42:01 10° NNW 18:48:35 53° NNE 18:48:35 53° NNE
CZ-4C R/B 3.7 18:52:00 10° NNW 18:57:03 36° NNE 18:57:03 36° NNE
Lacrosse 5 4.2 19:13:09 10° NW 19:14:46 18° NNW 19:14:46 18° NNW
Cosmos 2263 Rocket 4.2 19:31:24 10° NNW 19:33:26 23° NW 19:33:26 23° NW
